Torna al catalogo

COSMOS 1275 DEB

AttivoPO
NORAD 39938·DEBRIS·🇷🇺 Russia

Lanciato Jun 4, 1981 da Plesetsk Cosmodrome

Loading…

Prossimi Passaggi (prossime 24 ore)

TLE

AggiornatoSource: Space-Track

Epoca: Sep 13, 2026, 09:49 UTC

1 39938U 81053MY  26256.40962453  .00000696  00000-0  73704-3 0  9998
2 39938  83.0684  50.5981 0132795  86.0782 275.5541 13.69232880611312

Traccia COSMOS 1275 DEB in tempo reale con AllMySat

Download on the App Store